Location: Chequamegon National Forest
(46.1070°N, 90.8420°W)
Time: 09:52:32
(UTC-05:00)

Amateur Radio Satellites - All Passes

Search period start: 27 August 2014 09:22
Search period end: 28 August 2014 09:22
Location: Chequamegon National Forest, 46.1070°N, 90.8420°W

Satellite Date Start Highest point End Downlink Frequencies (MHz)
Time Altitude Azimuth
Saudisat 1A 27 Aug 09:53:53 09:56:49 18° 248° (WSW) 09:59:44 436.775 MHz
RS-15 27 Aug 09:59:33 10:10:35 74° 310° (NW) 10:21:34 29.354 - 29.394 USB, Beacon 29.352 USB
UKube-1 27 Aug 10:11:01 10:15:07 39° 99° (E) 10:19:12 145.840 MHz, 145.915 MHz
Oscar 11 27 Aug 10:21:16 10:25:16 34° 97° (E) 10:29:15 145.825 FM, Beacon 2401.500 USB
KITSAT 1 27 Aug 10:26:19 10:34:01 50° 246° (WSW) 10:41:40 435.175 FM
FUNcube-1 27 Aug 10:36:37 10:40:06 22° 93° (E) 10:43:35 145.950 - 145.970 MHz USB
HO-68 27 Aug 10:43:12 10:50:22 80° 289° (WNW) 10:57:31 435.675 MHz FM
JAS-1B 27 Aug 11:30:44 11:32:43 11° 39° (NE) 11:34:39 435.800 - 435.900 CW/SSB
SO-50 27 Aug 11:33:09 11:36:04 16° 29° (NNE) 11:39:01 436.795 FM
UKube-1 27 Aug 11:47:43 11:51:07 23° 296° (WNW) 11:54:31 145.840 MHz, 145.915 MHz
Oscar 16 27 Aug 11:48:38 11:49:19 10° 52° (NE) 11:50:00 437.025 USB, Beacon 2401.1428
Oscar 11 27 Aug 11:57:41 12:01:20 26° 294° (WNW) 12:04:57 145.825 FM, Beacon 2401.500 USB
ISS 27 Aug 12:01:06 12:03:48 23° 138° (SE) 12:06:30 145.800 FM
FUNcube-1 27 Aug 12:12:25 12:16:39 43° 290° (WNW) 12:20:58 145.950 - 145.970 MHz USB
RS-15 27 Aug 12:15:30 12:25:06 33° 340° (NNW) 12:34:48 29.354 - 29.394 USB, Beacon 29.352 USB
HO-68 27 Aug 12:32:19 12:37:02 19° 310° (NW) 12:41:46 435.675 MHz FM
Oscar 19 27 Aug 12:49:04 12:53:34 31° 65° (ENE) 12:58:07 437.125 CW, 437.150 USB
JAS-1B 27 Aug 13:12:18 13:21:00 39° 61° (ENE) 13:28:53 435.800 - 435.900 CW/SSB
SO-50 27 Aug 13:12:49 13:17:34 63° 50° (NE) 13:22:22 436.795 FM
ITAMSAT 1 27 Aug 13:13:25 13:17:34 25° 62° (ENE) 13:21:43 435.822 SSB
Oscar 16 27 Aug 13:22:34 13:27:38 62° 71° (ENE) 13:32:46 437.025 USB, Beacon 2401.1428
Uribyol 2 27 Aug 13:23:54 13:28:24 32° 65° (ENE) 13:32:56 436.500 FM
ISS 27 Aug 13:36:59 13:40:18 65° 336° (NNW) 13:43:38 145.800 FM
AO-27 27 Aug 13:40:34 13:45:25 42° 68° (ENE) 13:50:16 436.795 MHz FM
AO-Echo 27 Aug 13:45:27 13:50:18 47° 70° (ENE) 13:55:01 ?
MaSat-1 27 Aug 13:45:59 13:50:03 27° 105° (ESE) 13:54:19 437.345 MHz
Gurwin Techsat 1B 27 Aug 13:48:30 13:52:41 24° 62° (ENE) 13:56:53 435.225 FM
UOSAT-12 27 Aug 13:53:23 13:57:07 22° 35° (NE) 14:00:48 437.025 FM, 437.400 FM
AO-7 27 Aug 14:05:57 14:11:19 19° 44° (NE) 14:16:41 29.400 - 29.500 MHz
Oscar 19 27 Aug 14:28:02 14:32:49 38° 263° (W) 14:37:39 437.125 CW, 437.150 USB
RS-15 27 Aug 14:32:09 14:41:37 32° 15° (NNE) 14:51:15 29.354 - 29.394 USB, Beacon 29.352 USB
Uosat F 27 Aug 14:37:13 14:38:07 11° 53° (NE) 14:39:02 435.120 FM
TMSAT-1 27 Aug 14:41:22 14:46:25 48° 69° (ENE) 14:51:30 436.925 FM
ITAMSAT 1 27 Aug 14:51:46 14:56:46 49° 260° (W) 15:01:48 435.822 SSB
SO-50 27 Aug 14:54:16 14:57:43 20° 248° (WSW) 15:01:13 436.795 FM
JAS-1B 27 Aug 15:01:17 15:11:05 65° 259° (WSW) 15:20:00 435.800 - 435.900 CW/SSB
Uribyol 2 27 Aug 15:03:02 15:07:48 37° 263° (W) 15:12:35 436.500 FM
Oscar 16 27 Aug 15:03:52 15:07:26 19° 269° (W) 15:11:02 437.025 USB, Beacon 2401.1428
ISS 27 Aug 15:14:25 15:17:27 31° 356° (N) 15:20:28 145.800 FM
AO-27 27 Aug 15:20:39 15:25:04 28° 265° (W) 15:29:30 436.795 MHz FM
MaSat-1 27 Aug 15:22:02 15:26:51 49° 305° (NW) 15:31:55 437.345 MHz
AO-Echo 27 Aug 15:25:17 15:29:17 23° 267° (W) 15:33:13 ?
Gurwin Techsat 1B 27 Aug 15:27:09 15:32:19 53° 260° (W) 15:37:32 435.225 FM
UOSAT-12 27 Aug 15:33:03 15:37:48 76° 236° (SW) 15:42:28 437.025 FM, 437.400 FM
AO-7 27 Aug 15:54:26 16:02:41 68° 66° (ENE) 16:10:56 29.400 - 29.500 MHz
Uosat F 27 Aug 16:11:00 16:15:58 66° 72° (ENE) 16:20:57 435.120 FM
TMSAT-1 27 Aug 16:22:18 16:26:35 25° 267° (W) 16:30:54 436.925 FM
RS-15 27 Aug 16:45:37 16:56:35 64° 46° (NE) 17:07:55 29.354 - 29.394 USB, Beacon 29.352 USB
ISS 27 Aug 16:51:29 16:54:42 42° 16° (NNE) 16:57:55 145.800 FM
JAS-1B 27 Aug 16:57:48 17:02:58 15° 277° (W) 17:07:57 435.800 - 435.900 CW/SSB
MaSat-1 27 Aug 17:03:11 17:05:13 12° 326° (NW) 17:07:15 437.345 MHz
Sapphire 27 Aug 17:10:04 17:13:51 20° 106° (ESE) 17:17:40 437.095 MHz 1200 baud AX-25 AFSK
UOSAT-12 27 Aug 17:16:40 17:17:06 10° 254° (WSW) 17:17:31 437.025 FM, 437.400 FM
OPAL 27 Aug 17:17:32 17:22:32 45° 101° (E) 17:27:30 ?
Oscar 10/S400 27 Aug 17:21:00 17:35:15 24° 142° (SE) 17:54:52 145.825 - 145.975 CW/USB, Beacon 145.810 USB
PCSat 27 Aug 17:38:32 17:43:26 36° 112° (ESE) 17:48:21 145.825 MHz
JAS-2 27 Aug 17:41:54 17:47:57 54° 70° (ENE) 17:53:23 435.800 - 435.900 CW/SSB, 435.910 FM
AO-7 27 Aug 17:48:58 17:56:03 30° 266° (W) 18:03:10 29.400 - 29.500 MHz
Uosat F 27 Aug 17:52:01 17:55:13 17° 270° (W) 17:58:26 435.120 FM
Hamsat 27 Aug 18:01:40 18:05:58 77° 75° (ENE) 18:10:20 145.90 MHz
SO-67 27 Aug 18:12:10 18:13:50 13° 64° (ENE) 18:15:31 435.3500 MHz FM
ISS 27 Aug 18:28:16 18:31:30 47° 215° (SW) 18:34:44 145.800 FM
Sapphire 27 Aug 18:51:20 18:56:44 69° 305° (NW) 19:02:10 437.095 MHz 1200 baud AX-25 AFSK
STRAND 1 27 Aug 18:56:13 19:00:02 21° 92° (E) 19:03:51 ?
OPAL 27 Aug 18:56:47 19:01:13 29° 299° (WNW) 19:05:38 ?
RS-15 27 Aug 18:58:24 19:08:34 44° 250° (WSW) 19:19:08 29.354 - 29.394 USB, Beacon 29.352 USB
PCSat 27 Aug 19:21:42 19:26:48 41° 312° (NW) 19:31:56 145.825 MHz
JAS-2 27 Aug 19:28:14 19:33:18 25° 266° (W) 19:37:58 435.800 - 435.900 CW/SSB, 435.910 FM
HO-68 27 Aug 19:28:41 19:34:04 24° 53° (NE) 19:39:27 435.675 MHz FM
Hamsat 27 Aug 19:41:10 19:42:29 11° 273° (W) 19:43:50 145.90 MHz
SO-67 27 Aug 19:43:10 19:46:31 46° 261° (W) 19:49:53 435.3500 MHz FM
STRAND 1 27 Aug 20:34:35 20:39:34 54° 290° (WNW) 20:44:31 ?
Sapphire 27 Aug 20:37:38 20:41:11 17° 327° (NNW) 20:44:44 437.095 MHz 1200 baud AX-25 AFSK
UKube-1 27 Aug 21:08:51 21:13:02 48° 70° (ENE) 21:17:14 145.840 MHz, 145.915 MHz
PCSat 27 Aug 21:09:34 21:11:46 12° 335° (NNW) 21:13:58 145.825 MHz
HO-68 27 Aug 21:13:51 21:21:00 83° 253° (WSW) 21:28:12 435.675 MHz FM
Oscar 11 27 Aug 21:18:43 21:22:42 37° 69° (ENE) 21:26:43 145.825 FM, Beacon 2401.500 USB
FUNcube-1 27 Aug 21:36:02 21:39:18 23° 65° (ENE) 21:42:37 145.950 - 145.970 MHz USB
AO-40 27 Aug 21:41:25 03:02:31 35° 183° (S) 09:07:35 Beacon 2401.320
MaSat-1 27 Aug 22:01:16 22:04:18 16° 39° (NE) 22:07:09 437.345 MHz
UKube-1 27 Aug 22:46:31 22:49:31 18° 268° (W) 22:52:31 145.840 MHz, 145.915 MHz
Oscar 11 27 Aug 22:55:32 22:59:00 23° 267° (W) 23:02:30 145.825 FM, Beacon 2401.500 USB
KITSAT 1 27 Aug 23:04:47 23:10:04 19° 101° (ESE) 23:15:20 435.175 FM
HO-68 27 Aug 23:05:36 23:09:46 16° 273° (W) 23:13:57 435.675 MHz FM
FUNcube-1 27 Aug 23:11:39 23:15:31 37° 263° (W) 23:19:28 145.950 - 145.970 MHz USB
MaSat-1 27 Aug 23:37:24 23:42:14 86° 62° (ENE) 23:46:26 437.345 MHz
Saudisat 1A 28 Aug 00:01:08 00:05:29 65° 123° (ESE) 00:09:53 436.775 MHz
Sapphire 28 Aug 00:12:23 00:13:25 11° 21° (NNE) 00:14:27 437.095 MHz 1200 baud AX-25 AFSK
PCSat 28 Aug 00:41:08 00:44:04 14° 29° (NNE) 00:46:59 145.825 MHz
KITSAT 1 28 Aug 00:56:11 01:04:17 83° 122° (ESE) 01:12:25 435.175 FM
MaSat-1 28 Aug 01:17:02 01:18:19 11° 263° (W) 01:19:35 437.345 MHz
Oscar 16 28 Aug 01:32:44 01:36:16 18° 90° (E) 01:39:47 437.025 USB, Beacon 2401.1428
Saudisat 1A 28 Aug 01:41:59 01:45:29 22° 323° (NW) 01:48:59 436.775 MHz
AO-Echo 28 Aug 01:52:35 01:53:51 11° 87° (E) 01:55:07 ?
AO-27 28 Aug 01:53:10 01:54:56 12° 87° (E) 01:56:42 436.795 MHz FM
Sapphire 28 Aug 01:53:47 01:58:39 32° 45° (NE) 02:03:30 437.095 MHz 1200 baud AX-25 AFSK
PCSat 28 Aug 02:23:28 02:28:47 52° 52° (NE) 02:34:04 145.825 MHz
Oscar 19 28 Aug 02:36:31 02:41:42 64° 102° (ESE) 02:46:51 437.125 CW, 437.150 USB
JAS-1B 28 Aug 02:46:32 02:52:54 35° 92° (E) 02:58:25 435.800 - 435.900 CW/SSB
KITSAT 1 28 Aug 02:53:28 03:00:36 33° 325° (NW) 03:07:46 435.175 FM
TMSAT-1 28 Aug 02:55:51 02:58:58 16° 89° (E) 03:02:04 436.925 FM
OPAL 28 Aug 02:58:37 03:01:49 17° 55° (NE) 03:05:03 ?
ITAMSAT 1 28 Aug 03:01:52 03:06:54 48° 100° (E) 03:11:54 435.822 SSB
Oscar 16 28 Aug 03:10:55 03:16:05 65° 288° (WNW) 03:21:13 437.025 USB, Beacon 2401.1428
Uribyol 2 28 Aug 03:12:35 03:17:45 64° 102° (ESE) 03:22:54 436.500 FM
AO-Echo 28 Aug 03:28:35 03:33:19 86° 285° (WNW) 03:38:01 ?
AO-27 28 Aug 03:30:00 03:35:13 86° 105° (ESE) 03:40:25 436.795 MHz FM
Sapphire 28 Aug 03:37:04 03:42:18 50° 245° (WSW) 03:47:30 437.095 MHz 1200 baud AX-25 AFSK
Gurwin Techsat 1B 28 Aug 03:40:38 03:45:49 51° 100° (E) 03:50:58 435.225 FM
AO-7 28 Aug 03:54:50 03:59:58 17° 87° (E) 04:05:03 29.400 - 29.500 MHz
PCSat 28 Aug 04:07:24 04:11:55 27° 251° (WSW) 04:16:23 145.825 MHz
Oscar 19 28 Aug 04:16:50 04:20:35 21° 300° (WNW) 04:24:19 437.125 CW, 437.150 USB
Uosat F 28 Aug 04:17:23 04:20:31 16° 90° (E) 04:23:37 435.120 FM
TMSAT-1 28 Aug 04:34:10 04:39:29 76° 287° (WNW) 04:44:46 436.925 FM
OPAL 28 Aug 04:35:01 04:40:04 80° 254° (WSW) 04:45:14 ?
JAS-1B 28 Aug 04:36:58 04:43:47 45° 297° (WNW) 04:49:36 435.800 - 435.900 CW/SSB
ITAMSAT 1 28 Aug 04:41:55 04:46:07 26° 298° (WNW) 04:50:19 435.822 SSB
Uribyol 2 28 Aug 04:53:02 04:56:46 20° 300° (WNW) 05:00:29 436.500 FM
Oscar 16 28 Aug 04:53:15 04:54:26 11° 307° (NW) 04:55:38 437.025 USB, Beacon 2401.1428
KITSAT 1 28 Aug 04:53:39 04:58:57 18° 354° (N) 05:04:15 435.175 FM
AO-Echo 28 Aug 05:09:33 05:11:21 12° 304° (WNW) 05:13:09 ?
SO-50 28 Aug 05:10:18 05:14:47 77° 124° (SE) 05:19:23 436.795 FM
AO-27 28 Aug 05:11:04 05:14:03 16° 303° (WNW) 05:17:01 436.795 MHz FM
Gurwin Techsat 1B 28 Aug 05:21:13 05:25:29 25° 298° (WNW) 05:29:44 435.225 FM
AO-7 28 Aug 05:45:41 05:54:03 80° 108° (ESE) 06:02:20 29.400 - 29.500 MHz
Hamsat 28 Aug 05:46:58 05:48:41 12° 88° (E) 05:50:24 145.90 MHz
UOSAT-12 28 Aug 05:47:59 05:51:07 18° 111° (ESE) 05:54:17 437.025 FM, 437.400 FM
Uosat F 28 Aug 05:54:49 05:59:47 68° 288° (WNW) 06:04:45 435.120 FM
STRAND 1 28 Aug 06:14:23 06:19:06 40° 67° (ENE) 06:23:50 ?
TMSAT-1 28 Aug 06:16:15 06:18:32 13° 306° (NW) 06:20:48 436.925 FM
OPAL 28 Aug 06:18:55 06:19:47 10° 272° (W) 06:20:40 ?
JAS-1B 28 Aug 06:31:53 06:32:13 10° 322° (NW) 06:32:33 435.800 - 435.900 CW/SSB
JAS-2 28 Aug 06:32:48 06:37:30 33° 97° (E) 06:42:23 435.800 - 435.900 CW/SSB, 435.910 FM
Oscar 10/S400 28 Aug 06:45:08 07:12:17 11° 258° (WSW) 07:47:29 145.825 - 145.975 CW/USB, Beacon 145.810 USB
Saudisat 1A 28 Aug 06:46:39 06:49:58 20° 36° (NE) 06:53:17 436.775 MHz
KITSAT 1 28 Aug 06:51:22 06:57:44 24° 24° (NNE) 07:04:04 435.175 FM
SO-50 28 Aug 06:52:25 06:55:53 21° 325° (NW) 06:59:25 436.795 FM
SO-67 28 Aug 07:07:00 07:07:20 10° 89° (E) 07:07:39 435.3500 MHz FM
RS-15 28 Aug 07:15:03 07:23:33 27° 103° (ESE) 07:31:55 29.354 - 29.394 USB, Beacon 29.352 USB
Hamsat 28 Aug 07:20:48 07:25:10 73° 285° (WNW) 07:29:29 145.90 MHz
UOSAT-12 28 Aug 07:26:09 07:30:46 66° 309° (NW) 07:35:29 437.025 FM, 437.400 FM
Uosat F 28 Aug 07:36:33 07:37:39 11° 307° (NW) 07:38:45 435.120 FM
AO-7 28 Aug 07:39:20 07:46:03 29° 309° (NW) 07:52:45 29.400 - 29.500 MHz
STRAND 1 28 Aug 07:53:59 07:58:23 29° 265° (W) 08:02:48 ?
JAS-2 28 Aug 08:18:01 08:22:40 34° 294° (WNW) 08:27:28 435.800 - 435.900 CW/SSB, 435.910 FM
Saudisat 1A 28 Aug 08:25:38 08:30:03 76° 236° (SW) 08:34:27 436.775 MHz
SO-67 28 Aug 08:37:19 08:40:44 55° 286° (WNW) 08:44:07 435.3500 MHz FM
HO-68 28 Aug 08:40:33 08:44:43 16° 87° (E) 08:48:52 435.675 MHz FM
KITSAT 1 28 Aug 08:46:49 08:54:52 64° 50° (NE) 09:02:51 435.175 FM
UOSAT-12 28 Aug 09:08:53 09:11:50 16° 331° (NNW) 09:14:49 437.025 FM, 437.400 FM
